EW1586 Weather Reports


Display with metric or nautical units.
time (UTC)temp
F
wind
direction
speed
MPH
gust
MPH
rain 1hr
in
rain 24hr
in
rain mn
in
humidity
%
barometer
mb
20190817130018 65 227 5.0 16.0 0.05 0.09 0.05 91 1007.4
20190817124527 65 263 5.0 13.0 0.05 0.09 0.05 92 1007.5
20190817123029 66 301 6.0 14.0 0.05 0.09 0.05 92 1007.6
20190817121515 67 246 3.0 15.0 0.05 0.09 0.05 89 1007.2
20190817120005 70 249 6.0 14.0 0.00 0.04 0.00 85 1006.8
20190817114912 70 196 2.0 18.0 0.00 0.04 0.00 85 1006.8
20190817113146 70 208 6.0 14.0 0.00 0.04 0.00 85 1006.9
20190817111652 69 159 4.0 15.0 0.00 0.04 0.00 86 1007.2
20190817110110 69 225 5.0 12.0 0.00 0.04 0.00 87 1007.4
20190817104703 68 178 6.0 16.0 0.00 0.04 0.00 87 1007.3
20190817103154 68 170 7.0 18.0 0.00 0.04 0.00 86 1007.6
20190817101639 68 166 6.0 20.0 0.00 0.04 0.00 86 1007.5
20190817100132 69 236 6.0 21.0 0.00 0.04 0.00 86 1007.5
20190817094614 68 224 5.0 19.0 0.00 0.04 0.00 86 1007.2
20190817093128 69 232 5.0 14.0 0.00 0.04 0.00 87 1007.1
20190817091648 67 173 4.0 18.0 0.00 0.04 0.00 88 1007.6
20190817090121 67 214 4.0 13.0 0.00 0.04 0.00 90 1007.5
20190817084644 66 242 4.0 8.0 0.00 0.04 0.00 90 1007.4
20190817083137 66 190 4.0 10.0 0.00 0.04 0.00 91 1007.5
20190817081652 65 159 3.0 10.0 0.00 0.04 0.00 91 1007.5
20190817080105 65 272 3.0 13.0 0.00 0.04 0.00 92 1007.5
20190817074653 65 228 3.0 9.0 0.00 0.04 0.00 92 1007.5
20190817073151 65 145 3.0 9.0 0.00 0.04 0.00 92 1007.2
20190817071606 64 219 3.0 14.0 0.00 0.04 0.00 92 1007.3
20190817070052 64 136 3.0 12.0 0.00 0.04 0.00 93 1007.3
20190817064618 63 202 3.0 12.0 0.00 0.04 0.00 93 1007.2
20190817063043 63 171 3.0 11.0 0.00 0.04 0.00 93 1007.3
20190817061545 63 167 5.0 10.0 0.00 0.04 0.00 93 1007.2
20190817060104 63 162 3.0 10.0 0.00 0.04 0.00 93 1007.1
20190817054608 62 169 3.0 9.0 0.00 0.04 0.00 93 1007.1
20190817053045 62 163 3.0 10.0 0.00 0.04 0.00 93 1007.1
20190817051528 62 175 4.0 11.0 0.00 0.04 0.00 93 1007.1
20190817050055 62 176 3.0 8.0 0.00 0.04 0.00 93 1007.1
20190817044603 62 202 3.0 10.0 0.00 0.04 0.00 93 1007.0
20190817043107 62 182 3.0 8.0 0.00 0.04 0.00 93 1007.0
20190817041539 62 193 3.0 10.0 0.00 0.04 0.00 92 1007.0
20190817040113 62 219 3.0 10.0 0.00 0.04 0.00 92 1007.2
20190817034620 62 232 5.0 13.0 0.00 0.04 0.00 92 1007.2
20190817033051 62 226 1.0 13.0 0.00 0.04 0.00 92 1007.1
20190817031528 62 171 4.0 13.0 0.00 0.04 0.00 91 1007.2
20190817030049 62 182 4.0 12.0 0.00 0.04 0.00 90 1007.2
20190817024553 62 223 4.0 11.0 0.00 0.04 0.00 89 1007.3
20190817023036 62 131 3.0 11.0 0.00 0.04 0.00 88 1007.2
20190817021521 63 184 3.0 9.0 0.00 0.04 0.00 87 1007.2
20190817020032 63 158 4.0 9.0 0.00 0.04 0.00 86 1007.5
20190817014514 63 236 8.0 19.0 0.00 0.04 0.00 87 1007.7
20190817013014 63 190 3.0 11.0 0.00 0.04 0.00 87 1007.6
20190817011514 63 209 2.0 13.0 0.00 0.04 0.00 87 1007.7
20190817010044 63 189 4.0 12.0 0.00 0.04 0.00 86 1007.7
20190817004543 62 149 3.0 11.0 0.00 0.04 0.00 87 1007.8
20190817003008 62 182 4.0 9.0 0.00 0.04 0.00 87 1008.0
20190817001518 62 165 3.0 10.0 0.00 0.04 0.00 88 1008.1
20190817000006 62 219 3.0 10.0 0.00 0.04 0.00 89 1008.2
20190816234723 62 175 3.0 11.0 0.00 0.04 0.00 89 1008.3
20190816233112 61 190 4.0 8.0 0.00 0.04 0.00 90 1008.5
20190816231621 61 171 4.0 10.0 0.00 0.04 0.00 91 1008.6
20190816230140 61 212 2.0 9.0 0.00 0.04 0.00 92 1008.9
20190816224649 61 180 2.0 9.0 0.00 0.04 0.00 93 1009.1
20190816223136 61 165 2.0 8.0 0.00 0.04 0.00 93 1009.2
20190816221713 62 185 2.0 7.0 0.00 0.04 0.00 94 1009.5
20190816220125 62 169 3.0 9.0 0.01 0.04 0.00 94 1009.7
20190816214708 62 145 1.0 6.0 0.02 0.04 0.04 94 1009.9
20190816213134 62 165 1.0 5.0 0.02 0.04 0.04 94 1010.0
20190816211616 62 208 0.0 4.0 0.02 0.04 0.04 93 1010.4
20190816210142 63 238 0.0 0.0 0.01 0.03 0.03 93 1010.6
20190816204642 63 239 0.0 0.0 0.01 0.02 0.02 92 1010.8
20190816203155 63 239 0.0 0.0 0.01 0.02 0.02 91 1011.0
20190816201621 63 239 0.0 1.0 0.01 0.02 0.02 91 1011.0
20190816200139 64 239 0.0 1.0 0.02 0.02 0.02 90 1011.1
20190816194633 64 239 0.0 1.0 0.01 0.01 0.01 89 1011.2
20190816193110 64 239 0.0 4.0 0.01 0.01 0.01 88 1011.4
20190816191558 65 239 0.0 1.0 0.01 0.01 0.01 87 1011.3
20190816190109 65 239 0.0 5.0 0.00 0.00 0.00 86 1011.5
20190816184551 66 242 0.0 4.0 0.00 0.00 0.00 84 1011.3
20190816183107 66 243 1.0 6.0 0.00 0.00 0.00 82 1011.2
20190816181630 67 248 3.0 6.0 0.00 0.00 0.00 79 1011.4
20190816180052 68 259 2.0 8.0 0.00 0.00 0.00 77 1011.6
20190816174557 69 246 4.0 9.0 0.00 0.00 0.00 75 1011.7
20190816173052 70 233 3.0 9.0 0.00 0.00 0.00 67 1011.4
20190816171551 71 226 2.0 6.0 0.00 0.00 0.00 65 1011.3
20190816170110 71 252 2.0 7.0 0.00 0.00 0.00 63 1011.4
20190816164543 72 175 2.0 9.0 0.00 0.00 0.00 64 1011.5
20190816163107 72 184 2.0 8.0 0.00 0.00 0.00 62 1011.8
20190816161626 72 203 3.0 10.0 0.00 0.00 0.00 61 1012.2
20190816160042 72 173 4.0 7.0 0.00 0.00 0.00 60 1012.4
20190816154546 72 196 1.0 13.0 0.00 0.00 0.00 60 1012.5
20190816153032 73 232 5.0 16.0 0.00 0.00 0.00 60 1012.6
20190816151521 73 234 3.0 11.0 0.00 0.00 0.00 60 1012.8
20190816150128 72 202 4.0 11.0 0.00 0.00 0.00 61 1012.8
20190816144601 73 144 1.0 10.0 0.00 0.00 0.00 61 1013.2
20190816143023 73 234 6.0 20.0 0.00 0.00 0.00 58 1013.2
20190816141551 73 200 3.0 8.0 0.00 0.00 0.00 62 1013.2
20190816140015 72 170 5.0 13.0 0.00 0.00 0.00 60 1013.6
20190816134518 73 209 4.0 15.0 0.00 0.00 0.00 62 1013.5
20190816133008 73 177 4.0 14.0 0.00 0.00 0.00 62 1013.8
20190816131531 72 161 4.0 12.0 0.00 0.00 0.00 63 1014.2